| time (UTC) | temp F | wind direction | speed knots | gust knots | rain 1hr in | rain 24hr in | rain mn in | humidity % | barometer mb |
| 20260510170007 | 88 | 307 | 2.6 | 5.2 | 0.00 | 0.44 | 0.00 | 70 | 1015.4 |
| 20260510164615 | 89 | 167 | 3.5 | 6.1 | 0.00 | 0.44 | 0.00 | 70 | 1015.5 |
| 20260510163002 | 88 | 262 | 1.7 | 5.2 | 0.00 | 0.44 | 0.00 | 73 | 1015.9 |
| 20260510161601 | 86 | 269 | 2.6 | 5.2 | 0.00 | 0.44 | 0.00 | 76 | 1016.0 |
| 20260510160059 | 87 | 188 | 2.6 | 6.1 | 0.00 | 0.44 | 0.00 | 75 | 1016.0 |
| 20260510154555 | 87 | 255 | 1.7 | 7.0 | 0.00 | 0.44 | 0.00 | 78 | 1016.1 |
| 20260510153055 | 86 | 190 | 1.7 | 5.2 | 0.00 | 0.44 | 0.00 | 79 | 1016.3 |
| 20260510151554 | 85 | 167 | 2.6 | 6.1 | 0.00 | 0.44 | 0.00 | 80 | 1016.1 |
| 20260510150047 | 84 | 247 | 2.6 | 6.1 | 0.00 | 0.44 | 0.00 | 83 | 1016.1 |
| 20260510144549 | 83 | 218 | 2.6 | 6.1 | 0.00 | 0.44 | 0.00 | 83 | 1016.0 |
| 20260510143043 | 83 | 227 | 2.6 | 5.2 | 0.00 | 0.44 | 0.00 | 83 | 1016.1 |
| 20260510141538 | 83 | 259 | 3.5 | 6.1 | 0.00 | 0.44 | 0.00 | 86 | 1015.9 |
| 20260510140034 | 81 | 292 | 0.9 | 5.2 | 0.00 | 0.44 | 0.00 | 90 | 1015.7 |
| 20260510134529 | 79 | 204 | 1.7 | 5.2 | 0.00 | 0.44 | 0.00 | 96 | 1015.5 |
| 20260510133026 | 77 | 234 | 1.7 | 6.1 | 0.00 | 0.44 | 0.00 | 99 | 1015.4 |
| 20260510131523 | 76 | 189 | 1.7 | 4.3 | 0.00 | 0.44 | 0.00 | 99 | 1015.4 |
| 20260510130019 | 75 | 221 | 1.7 | 4.3 | 0.00 | 0.44 | 0.00 | 100 | 1015.3 |
| 20260510124516 | 75 | 263 | 1.7 | 3.5 | 0.00 | 0.44 | 0.00 | 100 | 1015.2 |
| 20260510123013 | 74 | 304 | 0.0 | 1.7 | 0.00 | 0.44 | 0.00 | 100 | 1015.0 |
| 20260510121510 | 74 | 168 | 0.9 | 1.7 | 0.00 | 0.44 | 0.00 | 100 | 1014.8 |
| 20260510120007 | 73 | 161 | 0.0 | 0.0 | 0.00 | 0.44 | 0.00 | 100 | 1014.7 |
| 20260510114504 | 72 | 161 | 0.0 | 0.0 | 0.00 | 0.44 | 0.00 | 99 | 1014.4 |
| 20260510113002 | 71 | 161 | 0.0 | 0.0 | 0.00 | 0.44 | 0.00 | 99 | 1014.4 |
| 20260510111559 | 70 | 161 | 0.0 | 0.0 | 0.00 | 0.44 | 0.00 | 99 | 1014.2 |
| 20260510110101 | 70 | 161 | 0.0 | 0.0 | 0.00 | 0.44 | 0.00 | 99 | 1014.0 |
| 20260510104609 | 70 | 161 | 0.0 | 0.0 | 0.00 | 0.44 | 0.00 | 99 | 1013.8 |
| 20260510103055 | 71 | 161 | 0.0 | 0.0 | 0.00 | 0.44 | 0.00 | 99 | 1013.5 |
| 20260510101555 | 71 | 161 | 0.0 | 0.0 | 0.00 | 0.44 | 0.00 | 99 | 1013.4 |
| 20260510100056 | 71 | 161 | 0.0 | 0.0 | 0.00 | 0.44 | 0.00 | 99 | 1013.2 |
| 20260510094551 | 71 | 161 | 0.0 | 0.0 | 0.00 | 0.44 | 0.00 | 99 | 1013.2 |
| 20260510093049 | 72 | 161 | 0.0 | 0.0 | 0.00 | 0.44 | 0.00 | 99 | 1013.1 |
| 20260510091548 | 72 | 161 | 0.0 | 0.9 | 0.00 | 0.44 | 0.00 | 99 | 1012.9 |
| 20260510090050 | 72 | 160 | 0.0 | 2.6 | 0.00 | 0.44 | 0.00 | 99 | 1012.7 |
| 20260510084554 | 72 | 156 | 0.9 | 2.6 | 0.00 | 0.44 | 0.00 | 99 | 1012.6 |
| 20260510083051 | 72 | 161 | 0.9 | 2.6 | 0.00 | 0.44 | 0.00 | 99 | 1012.4 |
| 20260510081547 | 73 | 157 | 0.9 | 2.6 | 0.00 | 0.44 | 0.00 | 99 | 1012.4 |
| 20260510080052 | 73 | 153 | 0.9 | 2.6 | 0.00 | 0.44 | 0.00 | 99 | 1012.3 |
| 20260510074601 | 72 | 140 | 0.9 | 2.6 | 0.00 | 0.44 | 0.00 | 99 | 1012.4 |
| 20260510073047 | 73 | 139 | 0.0 | 1.7 | 0.00 | 0.44 | 0.00 | 98 | 1012.6 |
| 20260510071554 | 73 | 136 | 0.0 | 1.7 | 0.00 | 0.44 | 0.00 | 99 | 1012.7 |
| 20260510070042 | 73 | 137 | 0.9 | 2.6 | 0.00 | 0.44 | 0.00 | 99 | 1012.7 |
| 20260510064554 | 73 | 201 | 0.0 | 1.7 | 0.00 | 0.44 | 0.00 | 99 | 1012.9 |
| 20260510063038 | 73 | 201 | 0.0 | 1.7 | 0.00 | 0.44 | 0.00 | 99 | 1013.3 |
| 20260510061538 | 73 | 202 | 0.0 | 2.6 | 0.00 | 0.44 | 0.00 | 99 | 1013.4 |
| 20260510060038 | 73 | 202 | 0.0 | 1.7 | 0.00 | 0.44 | 0.00 | 99 | 1013.5 |
| 20260510054533 | 72 | 202 | 0.0 | 0.0 | 0.00 | 0.44 | 0.00 | 98 | 1013.7 |
| 20260510053029 | 72 | 160 | 0.0 | 0.0 | 0.00 | 0.44 | 0.00 | 98 | 1013.9 |
| 20260510051538 | 72 | 160 | 0.0 | 0.0 | 0.00 | 0.44 | 0.00 | 98 | 1013.9 |
| 20260510050026 | 72 | 160 | 0.0 | 0.0 | 0.00 | 0.44 | 0.00 | 98 | 1014.3 |
| 20260510044529 | 72 | 160 | 0.0 | 0.0 | 0.00 | 0.44 | 0.00 | 98 | 1014.3 |
| 20260510043025 | 72 | 160 | 0.0 | 0.0 | 0.00 | 0.44 | 0.00 | 98 | 1014.4 |
| 20260510041522 | 72 | 160 | 0.0 | 0.0 | 0.00 | 0.44 | 0.00 | 97 | 1014.3 |
| 20260510040021 | 72 | 160 | 0.0 | 0.0 | 0.00 | 0.44 | 0.00 | 97 | 1014.3 |
| 20260510034519 | 73 | 160 | 0.0 | 0.0 | 0.00 | 0.44 | 0.44 | 97 | 1014.5 |
| 20260510033021 | 73 | 160 | 0.0 | 0.0 | 0.00 | 0.44 | 0.44 | 97 | 1014.3 |
| 20260510031518 | 73 | 160 | 0.0 | 0.0 | 0.00 | 0.44 | 0.44 | 97 | 1014.4 |
| 20260510030018 | 73 | 160 | 0.0 | 0.0 | 0.00 | 0.44 | 0.44 | 97 | 1014.3 |
| 20260510024519 | 73 | 161 | 0.0 | 0.0 | 0.00 | 0.44 | 0.44 | 97 | 1014.2 |
| 20260510023016 | 74 | 159 | 0.0 | 0.0 | 0.00 | 0.44 | 0.44 | 97 | 1014.0 |
| 20260510021515 | 74 | 159 | 0.0 | 0.0 | 0.00 | 0.44 | 0.44 | 97 | 1014.0 |
| 20260510020015 | 74 | 159 | 0.0 | 0.0 | 0.00 | 0.44 | 0.44 | 97 | 1013.6 |
| 20260510014521 | 74 | 75 | 0.0 | 0.0 | 0.00 | 0.44 | 0.44 | 97 | 1013.3 |
| 20260510013014 | 74 | 336 | 0.0 | 0.0 | 0.00 | 0.44 | 0.44 | 96 | 1013.4 |
| 20260510011518 | 74 | 337 | 0.0 | 0.0 | 0.00 | 0.44 | 0.44 | 96 | 1013.4 |
| 20260510010013 | 74 | 337 | 0.0 | 0.0 | 0.00 | 0.44 | 0.44 | 95 | 1013.3 |
| 20260510004513 | 74 | 337 | 0.0 | 0.0 | 0.00 | 0.44 | 0.44 | 95 | 1013.3 |
| 20260510003012 | 75 | 337 | 0.0 | 0.0 | 0.00 | 0.44 | 0.44 | 94 | 1013.0 |
| 20260510001511 | 75 | 337 | 0.0 | 0.0 | 0.00 | 0.44 | 0.44 | 94 | 1012.9 |
| 20260510000011 | 75 | 337 | 0.0 | 0.0 | 0.00 | 0.44 | 0.44 | 94 | 1012.6 |
| 20260509234509 | 75 | 337 | 0.0 | 0.0 | 0.00 | 0.44 | 0.44 | 93 | 1012.4 |
| 20260509233009 | 75 | 337 | 0.0 | 0.0 | 0.00 | 0.44 | 0.44 | 94 | 1012.4 |
| 20260509231509 | 75 | 337 | 0.0 | 0.0 | 0.00 | 0.44 | 0.44 | 94 | 1012.4 |
| 20260509230008 | 75 | 337 | 0.0 | 0.9 | 0.00 | 0.44 | 0.44 | 94 | 1012.2 |
| 20260509224506 | 75 | 336 | 0.0 | 1.7 | 0.00 | 0.55 | 0.44 | 94 | 1012.1 |
| 20260509223006 | 75 | 336 | 0.0 | 0.9 | 0.00 | 0.55 | 0.44 | 94 | 1012.1 |
| 20260509221516 | 75 | 336 | 0.0 | 0.9 | 0.00 | 0.55 | 0.44 | 94 | 1012.0 |
| 20260509220005 | 75 | 336 | 0.0 | 2.6 | 0.00 | 0.55 | 0.44 | 95 | 1012.0 |
| 20260509214504 | 75 | 337 | 0.0 | 0.9 | 0.00 | 0.92 | 0.44 | 95 | 1012.1 |
| 20260509213004 | 75 | 336 | 0.0 | 2.6 | 0.01 | 0.92 | 0.44 | 95 | 1012.0 |
| 20260509211504 | 75 | 344 | 0.0 | 2.6 | 0.01 | 0.92 | 0.44 | 96 | 1012.1 |
| 20260509210002 | 75 | 40 | 0.0 | 1.7 | 0.01 | 0.92 | 0.44 | 96 | 1012.0 |
| 20260509204501 | 74 | 54 | 0.0 | 1.7 | 0.41 | 0.92 | 0.44 | 95 | 1012.0 |
| 20260509203101 | 75 | 62 | 0.9 | 3.5 | 0.43 | 0.91 | 0.43 | 95 | 1012.1 |
| 20260509201559 | 74 | 61 | 0.0 | 2.6 | 0.43 | 0.91 | 0.43 | 94 | 1011.8 |
| 20260509200107 | 75 | 360 | 1.7 | 10.4 | 0.43 | 0.91 | 0.43 | 92 | 1011.6 |
| 20260509194659 | 79 | 294 | 11.3 | 23.5 | 0.15 | 0.63 | 0.15 | 83 | 1012.3 |
| 20260509193108 | 85 | 288 | 0.9 | 5.2 | 0.00 | 0.48 | 0.00 | 77 | 1011.5 |
| 20260509191612 | 86 | 306 | 0.9 | 5.2 | 0.00 | 0.48 | 0.00 | 73 | 1011.2 |
| 20260509190107 | 87 | 304 | 1.7 | 5.2 | 0.00 | 0.48 | 0.00 | 71 | 1011.3 |
| 20260509184550 | 87 | 333 | 0.9 | 6.1 | 0.00 | 0.48 | 0.00 | 70 | 1011.5 |
| 20260509183049 | 88 | 284 | 2.6 | 7.0 | 0.00 | 0.48 | 0.00 | 72 | 1011.8 |
| 20260509181547 | 88 | 288 | 0.9 | 6.1 | 0.00 | 0.48 | 0.00 | 74 | 1012.1 |
| 20260509180044 | 88 | 293 | 2.6 | 7.0 | 0.00 | 0.48 | 0.00 | 73 | 1012.3 |
| 20260509174543 | 87 | 269 | 0.9 | 6.1 | 0.00 | 0.48 | 0.00 | 73 | 1012.4 |
| 20260509173053 | 87 | 286 | 1.7 | 5.2 | 0.00 | 0.48 | 0.00 | 74 | 1012.5 |
| 20260509171548 | 86 | 225 | 1.7 | 7.8 | 0.00 | 0.48 | 0.00 | 75 | 1012.6 |